Location: Newark
(45.6439°N, 0.5436°E)
Time: 02:05:17
(UTC+00:00)

N. Korean satellite - Pass Details

Date: 01 December 2019
Orbit: 456 x 506 km, 97.2° (Epoch: 07 December)

Event Time Altitude Azimuth Distance (km) Brightness Sun altitude
Rises 17:53:34 0° 202° (SSW) 2,591 10.8 -16.6°
Reaches altitude 10° 17:56:06 10° 221° (SW) 1,716 10.2 -17.0°
Maximum altitude 17:58:47 19° 267° (W) 1,264 9.6 -17.4°
Drops below altitude 10° 18:01:29 10° 314° (NW) 1,729 9.8 -17.9°
Sets 18:04:04 0° 333° (NNW) 2,618 10.5 -18.3°
